TimeCET,TemperatureF,Dew PointF,Humidity,Sea Level PressureIn,VisibilityMPH,Wind Direction,Wind SpeedMPH,Gust SpeedMPH,PrecipitationIn,Events,Conditions,WindDirDegrees,DateUTC
12:55 AM,57.2,46.4,67,29.89,-9999.0,East,4.6,-,N/A,,Clear,90,2012-11-02 23:55:00
1:55 AM,57.2,46.4,67,29.89,-9999.0,East,4.6,-,N/A,,Clear,80,2012-11-03 00:55:00
2:55 AM,57.2,48.2,72,29.89,-9999.0,East,5.8,-,N/A,,Clear,90,2012-11-03 01:55:00
3:55 AM,57.2,46.4,67,29.92,-9999.0,East,4.6,-,N/A,,Clear,80,2012-11-03 02:55:00
4:55 AM,57.2,48.2,72,29.92,-9999.0,East,2.3,-,N/A,,Clear,100,2012-11-03 03:55:00
5:55 AM,57.2,46.4,67,29.92,-9999.0,East,3.5,-,N/A,,Clear,80,2012-11-03 04:55:00
6:55 AM,55.4,46.4,72,29.92,-9999.0,East,2.3,-,N/A,,Clear,90,2012-11-03 05:55:00
7:00 AM,56,47,63,29.93,12,East,2.3,,,,Scattered Clouds,90,2012-11-03 06:00:00
7:55 AM,57.2,48.2,72,29.95,-9999.0,East,2.3,-,N/A,,Clear,90,2012-11-03 06:55:00
8:55 AM,60.8,51.8,72,29.95,6.2,East,2.3,-,N/A,,Scattered Clouds,90,2012-11-03 07:55:00
9:55 AM,62.6,51.8,68,29.95,6.2,SE,2.3,-,N/A,,Partly Cloudy,130,2012-11-03 08:55:00
10:55 AM,66.2,51.8,60,29.95,6.2,South,2.3,-,N/A,,Partly Cloudy,180,2012-11-03 09:55:00
11:55 AM,68.0,51.8,56,29.95,6.2,Calm,Calm,-,N/A,,Partly Cloudy,0,2012-11-03 10:55:00
12:55 PM,66.2,51.8,60,29.95,6.2,West,1.2,-,N/A,,Mostly Cloudy,270,2012-11-03 11:55:00
1:00 PM,66,51,48,29.97,12,West,1.2,,,,Mostly Cloudy,270,2012-11-03 12:00:00
1:55 PM,64.4,51.8,64,29.95,6.2,NNE,3.5,-,N/A,,Mostly Cloudy,30,2012-11-03 12:55:00
2:55 PM,62.6,53.6,72,29.95,6.2,Calm,Calm,-,N/A,,Mostly Cloudy,0,2012-11-03 13:55:00
3:55 PM,62.6,53.6,72,29.95,6.2,Calm,Calm,-,N/A,,Mostly Cloudy,0,2012-11-03 14:55:00
4:55 PM,59.0,51.8,77,29.92,6.2,ENE,1.2,-,N/A,,Mostly Cloudy,60,2012-11-03 15:55:00
5:55 PM,59.0,51.8,77,29.92,6.2,Calm,Calm,-,N/A,,Mostly Cloudy,0,2012-11-03 16:55:00
6:55 PM,57.2,53.6,88,29.92,6.2,Calm,Calm,-,N/A,,Mostly Cloudy,0,2012-11-03 17:55:00
7:00 PM,58,53,78,29.94,6,Calm,Calm,,,,Overcast,,2012-11-03 18:00:00
7:55 PM,60.8,53.6,77,29.95,6.2,East,2.3,-,N/A,,Scattered Clouds,100,2012-11-03 18:55:00
8:55 PM,60.8,53.6,77,29.95,6.2,Calm,Calm,-,N/A,,Scattered Clouds,0,2012-11-03 19:55:00
9:55 PM,59.0,53.6,82,29.92,-9999.0,Calm,Calm,-,N/A,,Clear,0,2012-11-03 20:55:00
10:55 PM,59.0,51.8,77,29.92,6.2,East,2.3,-,N/A,,Partly Cloudy,90,2012-11-03 21:55:00
11:55 PM,59.0,53.6,82,29.92,6.2,East,3.5,-,N/A,,Scattered Clouds,100,2012-11-03 22:55:00